CW2882 Weather Reports


Display with metric or nautical units.
time (UTC)temp
F
wind
direction
speed
MPH
gust
MPH
rain 1hr
in
rain 24hr
in
rain mn
in
humidity
%
barometer
mb
20260903183034 63 82 6.0 18.0 0.00 0.13 0.03 71 1009.7
20260903181532 64 97 3.0 9.0 0.00 0.13 0.03 74 1009.7
20260903180028 63 87 2.0 9.0 0.00 0.13 0.03 75 1009.4
20260903174534 62 176 3.0 12.0 0.00 0.13 0.03 76 1009.3
20260903173034 61 94 4.0 14.0 0.00 0.13 0.03 79 1009.1
20260903171521 60 174 5.0 15.0 0.00 0.13 0.03 80 1009.1
20260903170028 60 158 5.0 12.0 0.00 0.13 0.03 81 1009.0
20260903164518 59 116 4.0 11.0 0.00 0.13 0.03 82 1009.0
20260903163017 58 122 2.0 9.0 0.00 0.13 0.03 85 1009.0
20260903161513 57 87 3.0 7.0 0.00 0.13 0.03 87 1009.0
20260903160011 57 133 3.0 7.0 0.00 0.13 0.03 89 1008.9
20260903154511 56 159 2.0 9.0 0.00 0.13 0.03 89 1008.7
20260903153009 56 136 3.0 7.0 0.00 0.13 0.03 90 1008.8
20260903151510 55 164 0.0 6.0 0.00 0.13 0.03 90 1008.8
20260903150010 55 87 2.0 6.0 0.01 0.13 0.03 91 1008.8
20260903144508 55 106 3.0 8.0 0.02 0.13 0.03 91 1008.6
20260903143005 55 114 2.0 8.0 0.03 0.13 0.03 92 1008.5
20260903141502 55 77 2.0 6.0 0.03 0.13 0.03 92 1008.4
20260903140100 55 150 3.0 9.0 0.02 0.12 0.02 91 1008.4
20260903134608 55 110 3.0 9.0 0.01 0.11 0.01 90 1008.3
20260903133106 56 124 3.0 13.0 0.00 0.10 0.00 89 1008.1
20260903131551 56 161 2.0 7.0 0.00 0.10 0.00 88 1007.9
20260903130106 57 137 3.0 8.0 0.00 0.10 0.00 85 1007.6
20260903124555 57 148 3.0 9.0 0.00 0.10 0.00 83 1007.5
20260903123047 58 131 3.0 10.0 0.00 0.10 0.00 81 1007.5
20260903121542 58 142 3.0 12.0 0.00 0.10 0.00 81 1007.2
20260903120039 58 105 4.0 15.0 0.00 0.10 0.00 81 1007.1
20260903114538 58 103 2.0 12.0 0.00 0.10 0.00 81 1006.9
20260903113035 58 269 4.0 13.0 0.00 0.10 0.00 81 1006.8
20260903111536 58 214 2.0 10.0 0.00 0.10 0.00 81 1006.9
20260903110034 58 155 3.0 16.0 0.00 0.10 0.00 81 1006.7
20260903104531 58 34 2.0 10.0 0.00 0.10 0.00 82 1006.8
20260903103030 57 115 4.0 11.0 0.00 0.10 0.00 82 1006.8
20260903101529 58 156 6.0 13.0 0.00 0.10 0.00 82 1006.7
20260903100027 58 82 5.0 16.0 0.00 0.10 0.00 81 1006.6
20260903094532 58 129 5.0 15.0 0.00 0.10 0.00 82 1006.7
20260903093023 58 162 4.0 11.0 0.00 0.10 0.00 82 1006.6
20260903091524 58 114 5.0 12.0 0.00 0.10 0.00 82 1006.5
20260903090022 58 99 5.0 13.0 0.00 0.10 0.00 82 1006.4
20260903084519 58 129 3.0 10.0 0.00 0.10 0.00 83 1006.4
20260903083016 58 124 5.0 11.0 0.00 0.10 0.00 84 1006.4
20260903081515 58 155 2.0 10.0 0.00 0.10 0.00 85 1006.4
20260903080014 58 162 1.0 7.0 0.00 0.10 0.00 85 1006.5
20260903074513 57 93 1.0 8.0 0.00 0.10 0.00 85 1006.5
20260903073017 58 105 2.0 9.0 0.00 0.10 0.00 85 1006.7
20260903071510 58 210 2.0 8.0 0.00 0.10 0.00 86 1006.5
20260903070009 58 129 3.0 9.0 0.00 0.10 0.10 86 1006.4
20260903064508 58 129 3.0 11.0 0.00 0.10 0.10 86 1006.4
20260903063006 58 104 4.0 11.0 0.00 0.10 0.10 86 1006.2
20260903061508 58 89 6.0 15.0 0.00 0.10 0.10 86 1006.1
20260903060015 58 109 2.0 9.0 0.00 0.10 0.10 85 1005.9
20260903054505 58 139 3.0 9.0 0.00 0.10 0.10 86 1005.9
20260903053003 58 103 4.0 14.0 0.00 0.10 0.10 86 1005.9
20260903051501 58 224 3.0 11.0 0.00 0.10 0.10 87 1006.0
20260903050001 58 176 1.0 8.0 0.00 0.10 0.10 87 1006.1
20260903044500 58 121 2.0 10.0 0.00 0.10 0.10 87 1006.1
20260903043102 58 111 4.0 12.0 0.00 0.10 0.10 87 1006.0
20260903041559 58 124 1.0 11.0 0.00 0.10 0.10 86 1005.7
20260903040104 58 139 5.0 15.0 0.00 0.10 0.10 85 1005.4
20260903034557 58 129 2.0 16.0 0.00 0.10 0.10 85 1004.8
20260903033056 58 189 3.0 12.0 0.00 0.10 0.10 85 1004.4
20260903031554 59 189 6.0 15.0 0.00 0.10 0.10 84 1003.8
20260903030054 59 129 4.0 14.0 0.00 0.10 0.10 84 1003.5
20260903024556 60 266 3.0 13.0 0.00 0.10 0.10 84 1003.3
20260903023101 60 175 3.0 13.0 0.00 0.10 0.10 85 1002.9
20260903021558 60 117 6.0 17.0 0.00 0.10 0.10 86 1002.3
20260903020050 60 181 6.0 19.0 0.00 0.10 0.10 87 1002.1
20260903014602 59 124 7.0 18.0 0.00 0.10 0.10 89 1001.8
20260903013053 59 182 8.0 18.0 0.00 0.10 0.10 89 1001.8
20260903011548 59 152 5.0 14.0 0.03 0.10 0.10 90 1002.1
20260903010049 58 102 7.0 15.0 0.06 0.10 0.10 91 1002.2
20260903004544 58 71 6.0 16.0 0.08 0.10 0.10 92 1002.5
20260903003041 58 61 4.0 15.0 0.10 0.10 0.10 92 1002.7
20260903001538 58 127 6.0 15.0 0.07 0.07 0.07 90 1002.8
20260903000033 59 79 4.0 13.0 0.04 0.04 0.04 87 1002.9
20260902234548 60 120 5.0 20.0 0.02 0.02 0.02 85 1003.0
20260902233032 61 138 5.0 15.0 0.00 0.00 0.00 81 1003.1
20260902231540 63 207 2.0 12.0 0.00 0.00 0.00 78 1003.2
20260902230029 63 183 2.0 14.0 0.00 0.00 0.00 76 1003.2
20260902224530 64 188 2.0 10.0 0.00 0.00 0.00 76 1003.2
20260902223028 64 183 6.0 14.0 0.00 0.00 0.00 73 1003.2
20260902221528 66 84 3.0 11.0 0.00 0.00 0.00 71 1003.1
20260902220031 66 46 1.0 9.0 0.00 0.00 0.00 71 1003.2
20260902214527 66 210 3.0 13.0 0.00 0.00 0.00 69 1003.3
20260902213024 66 58 4.0 13.0 0.00 0.00 0.00 69 1003.2
20260902211534 66 130 4.0 13.0 0.00 0.00 0.00 68 1003.3
20260902210024 67 111 5.0 12.0 0.00 0.00 0.00 67 1003.4
20260902204522 67 245 5.0 12.0 0.00 0.00 0.00 65 1003.3
20260902203020 67 111 5.0 13.0 0.00 0.00 0.00 65 1003.3
20260902201528 67 122 6.0 14.0 0.00 0.00 0.00 65 1003.5
20260902200018 67 121 4.0 14.0 0.00 0.00 0.00 66 1003.6
20260902194517 67 215 6.0 14.0 0.00 0.00 0.00 66 1003.8
20260902193116 67 128 7.0 19.0 0.00 0.00 0.00 66 1003.9
20260902191514 68 55 2.0 13.0 0.00 0.00 0.00 66 1004.2
20260902190013 68 206 3.0 14.0 0.00 0.00 0.00 66 1004.3
20260902184511 68 136 4.0 16.0 0.00 0.00 0.00 67 1004.4